Back to catalog

SL-14 DEB

AlivePO
NORAD 35400·DEBRIS·🇷🇺 Russia

Launched Sep 28, 1991 from Plesetsk Cosmodrome

Loading…

Next Passes (next 24 hours)

TLE

StaleSource: Space-Track

Epoch: Aug 31, 2026, 12:55 UTC

1 35400U 91068AW  26243.53833005  .00000072  00000-0  22672-3 0  9991
2 35400  82.9262 333.1452 0189986 204.0678 172.8556 12.85911837317417

Track SL-14 DEB in real time with AllMySat

Download on the App Store